Location: Poughquag
(41.6090°N, 73.6820°W)
Time: 08:20:24
(UTC-05:00)

Altair - Pass Details

Date: 07 December 2023
Orbit: 1501 x 1682 km, 47.2° (Epoch: 02 March)

Event Time Altitude Azimuth Distance (km) Brightness Sun altitude
Rises 09:12:40 0° 261° (W) 4,824 9.8 16.6°
Reaches altitude 10° 09:15:52 10° 264° (W) 3,815 9.3 17.0°
Maximum altitude 09:25:30 68° 347° (NNW) 1,655 7.8 18.0°
Drops below altitude 10° 09:34:48 10° 70° (ENE) 3,687 9.7 18.9°
Sets 09:37:51 0° 73° (ENE) 4,655 10.2 19.2°
